Wetbulb
60.67 57.32 55.82 52.58 43.62 41.66 37.77 40.90 42.83 44.93 44.43 45.71 47.77 45.74 44.26 45.57 45.03 41.77 56.36 59.92 64.96 67.57 70.04 71.75 72.92 73.61 73.71 73.26 73.14 73.16 73.13 72.27 72.09 71.78 72.06 71.63 71.47 71.83 71.37 71.86 71.93 70.97 70.35 69.28 68.77 68.44 67.39 66.02 65.75
55.70 58.12 53.30 47.71 39.97 35.21 37.11 41.39 43.36 45.52 46.76 46.75 46.61 46.15 44.97 44.38 51.21 54.35 55.72 61.29 65.55 68.02 69.78 71.04 71.68 73.19 73.36 73.09 72.89 72.96 73.10 73.21 72.11 72.33 72.47 71.78 71.04 70.46 71.52 71.49 70.66 70.22 69.39 68.41 67.85 66.87 65.27 64.64 64.08
56.88 56.86 47.70 43.03 38.30 35.62 37.10 40.80 41.81 45.30 46.29 45.76 45.02 47.02 45.80 47.45 50.76 55.06 58.41 61.80 63.65 67.68 69.25 70.88 71.30 73.03 73.23 72.90 72.59 72.54 72.59 72.66 72.69 72.13 71.35 70.68 69.82 68.92 68.98 69.89 69.56 69.18 67.89 66.65 65.90 65.05 63.85 62.45 61.83
53.25 50.88 46.60 39.25 36.79 39.57 39.46 40.27 43.70 44.38 45.49 46.38 45.30 43.26 47.48 50.84 52.42 56.45 60.67 61.71 60.58 67.17 68.73 70.09 71.59 73.01 72.97 72.65 72.40 72.36 72.66 72.71 72.62 72.23 71.11 70.31 69.17 68.13 68.36 67.98 68.24 67.71 66.68 65.57 64.31 63.48 62.27 60.61 59.65
51.21 46.06 39.43 37.71 38.69 41.37 41.47 45.21 44.36 44.35 44.36 44.83 45.52 43.52 45.23 51.40 55.46 58.38 60.17 61.25 59.22 63.33 67.58 69.81 71.11 72.16 72.53 72.58 72.41 72.28 72.54 72.85 72.53 72.10 71.72 70.80 68.56 66.40 66.13 66.43 66.52 66.37 65.84 64.39 63.62 61.76 60.30 58.80 57.54
45.87 43.04 36.89 35.03 38.03 41.57 42.58 45.50 44.36 43.97 44.97 44.82 43.52 43.39 44.91 50.35 51.71 55.34 59.75 59.72 59.91 61.77 67.72 69.46 68.64 69.92 71.17 71.94 72.02 71.86 71.91 72.29 72.35 72.22 71.72 69.94 68.02 66.74 65.45 65.43 65.73 65.94 65.24 63.51 62.61 60.34 58.89 57.73 56.18
45.15 40.80 36.48 37.24 39.31 41.68 43.50 44.71 42.36 42.06 42.83 43.43 45.07 41.83 45.43 47.24 51.00 54.56 58.12 59.10 59.91 61.51 66.78 68.33 69.15 69.14 68.37 69.64 69.94 70.53 71.05 71.23 71.64 71.60 71.12 69.04 67.98 67.43 65.67 65.34 65.29 65.52 64.05 62.91 61.20 59.61 58.44 57.08 55.15
45.64 42.04 38.54 37.63 38.01 40.21 44.04 44.10 45.42 43.39 44.20 46.52 46.26 41.24 45.22 48.74 53.00 53.87 54.80 56.87 58.60 59.73 62.54 66.00 67.32 68.00 68.21 68.88 67.01 67.72 68.84 69.27 69.84 69.04 66.94 65.60 65.39 65.40 64.42 63.66 64.44 64.53 62.87 62.31 60.38 59.22 58.00 56.40 53.91
47.20 38.30 35.64 38.40 39.84 41.26 44.89 43.19 46.06 46.18 43.59 44.39 46.97 45.88 47.96 50.43 52.59 51.96 53.06 54.04 55.42 58.75 60.69 62.30 65.09 66.32 66.83 66.47 66.31 65.26 66.33 66.79 66.58 65.26 63.39 61.89 61.72 61.62 61.30 61.10 63.45 63.60 62.55 61.59 60.11 58.72 57.27 54.48 51.31
42.94 37.49 39.60 42.73 40.81 41.87 43.90 42.32 42.45 43.32 43.49 43.24 44.97 47.18 48.75 50.63 48.65 50.10 50.78 51.95 53.26 55.76 58.43 61.11 62.35 64.36 65.22 67.51 66.05 64.73 65.41 65.54 64.24 62.77 61.49 60.94 60.07 59.63 59.43 58.08 60.89 62.29 61.98 61.47 59.77 58.25 55.80 50.34 42.14
44.42 40.10 43.69 45.87 46.61 45.53 44.68 44.58 44.71 42.70 41.34 44.02 44.42 46.17 46.50 48.71 48.53 48.96 49.31 51.28 52.95 55.45 57.42 60.46 61.61 62.52 63.86 64.94 64.00 64.99 64.74 62.82 62.65 62.14 62.22 62.00 60.81 58.32 57.07 55.25 56.52 56.03 56.46 54.60 54.56 52.44 47.71 45.69 43.12
41.17 45.97 46.38 46.96 47.08 45.30 44.12 45.13 44.98 44.20 46.28 47.45 47.11 47.39 46.46 46.95 46.33 47.81 47.97 48.50 49.05 52.77 56.93 59.39 61.31 62.22 62.30 63.33 62.89 64.44 64.23 63.22 62.70 63.98 62.63 61.72 60.68 56.24 53.68 53.31 53.41 52.43 51.14 50.04 48.26 46.68 43.79 42.15 42.10
41.59 43.13 45.81 46.64 45.94 45.14 45.44 43.73 44.30 44.54 47.48 48.16 48.45 47.85 46.90 46.20 46.31 46.76 47.96 48.46 48.80 49.33 52.95 57.46 60.15 61.69 62.71 61.64 61.27 62.21 63.09 62.94 62.64 60.70 61.56 62.26 60.46 57.13 52.54 52.44 52.83 50.97 49.87 48.57 46.57 44.03 41.73 41.07 41.34
42.98 43.56 43.71 44.69 45.20 44.98 43.37 42.51 44.05 45.10 45.81 46.05 46.22 45.40 45.05 45.28 45.56 45.75 46.29 47.64 47.54 49.58 50.33 54.75 59.63 60.95 61.47 62.17 60.44 60.13 60.56 60.74 60.07 59.24 60.11 60.23 59.58 56.75 52.75 51.90 52.21 51.41 49.79 47.94 45.50 42.01 40.67 40.09 40.07
43.65 40.27 42.03 43.21 43.41 42.88 43.33 39.78 41.76 45.46 44.45 44.38 44.62 43.98 44.42 45.21 45.16 44.51 45.94 46.00 46.03 47.36 48.58 51.00 57.74 59.52 60.32 59.92 60.01 59.42 59.43 59.62 60.71 60.13 58.86 58.55 57.86 56.44 52.63 51.14 50.93 51.84 49.38 46.76 42.79 41.19 40.36 39.33 39.88
40.25 37.12 34.63 41.88 43.17 42.91 41.19 35.41 42.99 44.97 42.26 43.64 44.62 43.59 44.14 42.94 43.69 43.79 44.45 44.63 44.70 45.17 46.26 49.22 55.01 57.13 57.34 57.85 58.46 59.18 58.85 58.17 58.32 59.21 59.61 57.85 56.81 55.86 53.22 50.14 49.88 49.47 47.47 44.81 41.10 39.72 38.92 38.32 37.94
35.24 31.24 34.41 38.16 42.64 41.79 39.42 35.98 42.74 44.52 43.49 42.39 42.96 42.64 42.41 41.68 42.19 42.64 43.35 43.50 44.00 44.41 44.99 46.14 48.55 54.50 56.00 56.09 56.96 57.84 57.70 57.07 56.97 57.16 56.50 57.05 55.48 54.14 51.30 49.43 48.99 47.85 45.01 41.81 41.13 37.87 38.04 36.35 36.21
32.22 31.96 35.15 35.03 40.51 40.28 37.52 37.07 40.81 42.90 42.58 42.77 40.26 40.78 40.00 40.01 40.36 42.16 42.14 42.73 42.86 43.17 44.34 45.21 46.45 48.44 52.78 54.08 54.07 54.41 54.82 54.95 55.06 55.27 56.37 55.64 55.36 51.76 49.67 48.11 47.91 45.48 42.30 39.76 38.78 37.76 36.83 36.51 36.08
35.86 34.36 33.36 36.35 41.13 37.78 37.73 37.12 40.03 42.51 42.27 42.42 39.50 39.03 38.94 39.50 41.54 41.88 41.70 41.43 41.54 41.24 41.89 42.73 43.50 44.86 46.85 48.91 50.12 51.02 51.44 52.43 52.69 54.81 55.43 54.87 54.50 52.63 48.22 46.48 46.08 43.15 41.74 39.69 38.55 37.08 36.50 35.79 35.00
36.16 33.92 33.64 37.24 40.27 37.53 36.55 36.67 39.91 42.42 39.34 38.73 38.41 37.77 38.13 39.04 39.53 40.30 39.88 39.56 39.57 39.50 40.10 40.84 41.51 42.72 43.87 45.61 46.42 47.79 48.57 48.57 51.31 52.17 52.65 53.60 53.03 52.08 48.41 45.62 44.12 42.03 39.48 38.62 38.12 37.34 35.26 35.64 35.05
35.91 34.36 33.79 35.08 36.47 36.93 33.89 32.10 35.81 37.47 39.11 39.59 39.04 38.85 38.74 37.91 37.57 37.63 38.08 37.89 37.83 37.60 38.06 39.42 40.15 40.83 41.28 43.09 44.84 44.87 45.35 44.65 43.95 45.85 48.33 49.65 50.58 50.70 49.76 47.03 43.38 41.15 39.71 39.42 38.37 36.96 36.57 34.47 34.82
33.00 37.97 37.03 35.88 31.41 27.23 33.31 24.38 32.88 35.76 35.33 36.54 36.47 35.30 35.65 36.40 37.47 37.68 37.07 37.07 37.10 36.73 37.68 38.18 39.03 39.47 40.39 40.40 40.26 39.76 40.37 39.94 40.99 41.87 44.01 46.39 47.42 47.32 47.26 47.19 44.11 41.34 39.24 38.15 37.29 37.95 36.54 35.33 33.54
35.69 36.97 34.91 33.73 30.01 28.17 29.29 25.37 30.61 34.95 32.83 33.94 34.54 35.39 35.74 36.26 36.51 36.28 36.25 37.03 36.94 36.64 35.95 36.24 37.09 37.88 38.51 38.56 38.18 37.91 37.39 38.18 38.73 39.86 40.00 40.50 43.10 44.70 45.22 44.56 43.29 42.84 41.14 37.84 36.85 36.20 35.34 35.05 35.54
38.17 34.39 34.08 31.32 29.42 23.32 29.42 28.86 29.54 32.11 34.17 33.74 35.06 35.46 36.02 35.80 35.70 35.77 36.51 36.60 35.01 34.62 34.40 34.76 35.01 35.26 36.42 36.99 36.80 36.16 35.49 35.76 35.83 36.19 36.65 37.69 39.08 40.61 41.71 42.81 42.13 41.77 40.16 38.37 36.94 36.23 35.56 36.49 35.19
35.22 30.22 25.16 23.42 21.68 23.15 31.39 29.33 32.61 36.98 36.06 36.03 34.24 34.03 34.44 34.68 34.19 33.96 33.61 33.60 33.82 33.05 33.00 34.01 33.19 33.23 34.38 34.83 35.08 34.87 35.15 34.88 34.74 34.81 35.14 34.94 35.77 36.52 37.01 37.67 38.54 39.51 40.29 39.16 37.45 35.66 34.90 34.87 35.89
32.62 32.39 26.01 18.02 22.04 23.80 30.29 27.04 32.80 35.10 36.32 35.99 35.39 34.63 34.59 34.00 34.30 34.10 33.86 32.91 33.49 33.34 32.59 32.05 31.83 31.64 32.93 33.42 33.58 33.92 34.06 34.29 34.43 33.59 33.76 33.95 34.39 35.07 35.78 35.41 35.65 36.59 38.23 39.00 37.27 35.49 34.34 34.08 34.64
33.74 30.89 35.65 29.20 28.50 21.38 26.81 31.15 33.50 35.24 34.16 33.98 33.16 32.71 32.12 33.50 34.66 34.99 33.24 32.30 32.01 32.49 32.31 31.66 30.98 31.09 31.77 32.83 32.51 33.04 33.07 32.94 32.29 31.47 31.97 32.13 33.16 34.82 34.72 34.26 33.69 34.15 34.63 35.40 36.08 34.56 33.72 33.24 33.42
35.91 37.72 28.67 30.12 16.72 15.97 23.52 25.46 27.23 31.65 32.24 32.95 31.26 31.36 31.55 32.57 33.16 34.16 33.52 32.51 31.72 31.51 31.44 31.66 31.95 30.16 30.32 31.09 31.63 31.82 31.36 32.15 31.31 31.08 30.92 30.32 31.22 31.66 32.03 32.06 32.39 33.10 33.29 32.97 32.78 32.18 32.78 32.21 32.89
30.71 29.98 32.20 32.11 28.71 21.89 17.16 22.97 33.69 34.37 34.09 32.18 31.49 32.23 32.61 32.74 32.63 32.39 33.01 33.14 31.46 31.07 29.92 29.46 29.60 29.63 29.45 30.08 30.45 31.38 31.31 31.40 30.46 29.05 28.91 29.04 29.67 29.94 29.85 31.00 30.95 30.64 30.43 31.26 31.55 31.56 31.79 31.71 32.02
35.27 32.92 32.41 28.21 24.32 26.14 26.35 26.54 35.58 34.91 34.12 32.95 32.99 33.07 31.68 31.34 29.13 29.21 30.00 30.89 30.44 29.25 29.14 28.87 29.46 29.59 30.10 30.76 29.69 29.49 30.20 29.74 29.50 28.32 28.06 28.44 28.58 29.28 29.04 29.11 28.64 28.68 29.20 29.45 29.16 29.60 30.17 30.43 30.70
MSLP
1014.72 1014.21 1014.63 1014.74 1016.15 1016.54 1015.74 1014.69 1013.85 1013.51 1013.32 1013.18 1013.09 1013.25 1013.52 1013.59 1013.79 1014.64 1014.17 1014.09 1014.45 1015.05 1015.32 1015.73 1016.04 1016.25 1016.49 1016.81 1017.30 1017.70 1017.99 1018.24 1018.49 1018.72 1018.91 1019.13 1019.31 1019.36 1019.46 1019.60 1019.71 1019.92 1020.15 1020.45 1020.53 1020.57 1020.75 1020.87 1020.94
1014.67 1014.20 1014.64 1015.50 1016.40 1016.50 1015.63 1014.26 1013.66 1013.15 1012.97 1012.95 1013.02 1013.07 1013.36 1013.42 1013.44 1014.08 1014.21 1014.05 1014.31 1014.73 1015.31 1015.52 1015.87 1016.27 1016.58 1016.87 1017.17 1017.52 1017.73 1017.94 1018.34 1018.57 1018.74 1018.95 1019.28 1019.46 1019.53 1019.71 1019.84 1020.07 1020.43 1020.70 1020.78 1020.81 1020.87 1021.06 1021.07
1014.69 1014.59 1015.73 1016.06 1016.45 1015.71 1014.76 1013.98 1013.42 1013.11 1012.89 1012.90 1013.08 1012.89 1013.01 1013.27 1013.57 1013.72 1013.67 1013.77 1014.17 1014.71 1015.06 1015.58 1015.95 1016.08 1016.49 1016.89 1017.14 1017.41 1017.63 1017.74 1018.17 1018.53 1018.79 1019.03 1019.32 1019.49 1019.61 1019.79 1019.97 1020.15 1020.60 1020.82 1020.92 1020.94 1021.06 1021.17 1021.17
1014.90 1015.21 1016.04 1016.14 1015.89 1014.52 1013.81 1013.33 1012.94 1012.94 1012.95 1012.78 1012.96 1013.30 1013.07 1012.89 1013.17 1013.46 1013.67 1013.86 1014.29 1014.74 1014.98 1015.41 1015.93 1016.33 1016.54 1016.72 1017.03 1017.41 1017.66 1017.83 1018.05 1018.33 1018.68 1019.01 1019.36 1019.68 1019.81 1019.94 1020.06 1020.29 1020.58 1020.85 1021.01 1021.10 1021.23 1021.23 1021.31
1015.36 1016.16 1016.58 1016.37 1015.37 1013.98 1013.31 1012.90 1012.80 1012.89 1012.89 1013.02 1012.97 1013.30 1013.32 1013.45 1013.64 1013.54 1013.74 1013.95 1014.26 1014.73 1014.89 1015.36 1015.84 1016.18 1016.50 1016.84 1017.04 1017.27 1017.59 1017.84 1018.05 1018.29 1018.60 1018.88 1019.18 1019.71 1020.06 1020.14 1020.25 1020.40 1020.62 1020.85 1020.99 1021.19 1021.32 1021.42 1021.52
1016.12 1016.47 1016.97 1016.58 1015.37 1014.05 1013.32 1012.70 1012.79 1012.95 1012.90 1012.99 1013.06 1013.34 1013.70 1013.84 1014.00 1013.95 1013.80 1013.99 1014.12 1014.54 1014.83 1015.06 1015.46 1015.87 1016.29 1016.62 1016.98 1017.34 1017.59 1017.81 1018.03 1018.27 1018.50 1018.60 1019.19 1019.74 1020.13 1020.35 1020.33 1020.45 1020.77 1020.97 1021.25 1021.44 1021.60 1021.68 1021.78
1016.43 1017.02 1016.95 1016.10 1015.06 1014.00 1013.30 1012.71 1012.82 1013.01 1012.95 1013.04 1012.97 1013.41 1013.86 1013.98 1013.91 1013.95 1013.97 1014.06 1014.18 1014.27 1014.72 1015.02 1015.27 1015.51 1015.83 1016.23 1016.68 1017.08 1017.43 1017.76 1018.05 1018.25 1018.45 1018.69 1019.08 1019.56 1020.04 1020.41 1020.44 1020.66 1020.93 1021.07 1021.33 1021.45 1021.59 1021.80 1021.90
1016.18 1016.99 1016.82 1015.87 1015.08 1014.06 1013.23 1012.89 1012.80 1012.95 1012.97 1012.87 1012.96 1013.44 1013.67 1013.43 1013.78 1013.87 1014.06 1014.28 1014.29 1014.41 1014.41 1014.77 1015.17 1015.53 1015.87 1016.12 1016.40 1016.79 1017.22 1017.54 1017.84 1018.15 1018.51 1018.84 1019.12 1019.46 1020.04 1020.61 1020.68 1020.83 1021.02 1021.20 1021.52 1021.73 1021.80 1021.83 1022.03
1016.01 1017.06 1016.95 1015.84 1015.19 1014.61 1013.85 1013.68 1013.37 1013.08 1013.13 1013.10 1013.15 1013.11 1012.89 1013.23 1013.70 1014.04 1014.22 1014.36 1014.53 1014.53 1014.55 1014.61 1014.91 1015.35 1015.70 1016.01 1016.22 1016.51 1016.82 1017.30 1017.63 1017.96 1018.39 1018.83 1019.14 1019.44 1019.87 1020.59 1020.73 1020.89 1021.05 1021.25 1021.49 1021.64 1021.87 1022.17 1022.29
1016.54 1017.23 1016.49 1015.42 1015.23 1014.94 1014.48 1014.55 1014.40 1014.02 1013.78 1013.63 1013.45 1012.95 1013.09 1013.59 1014.11 1014.21 1014.46 1014.50 1014.43 1014.47 1014.54 1014.65 1014.73 1015.00 1015.38 1015.75 1016.19 1016.58 1016.87 1017.12 1017.44 1017.86 1018.29 1018.80 1019.21 1019.49 1019.80 1020.33 1020.57 1020.75 1020.95 1021.25 1021.52 1021.77 1022.12 1022.42 1022.56
1016.35 1016.54 1015.91 1015.17 1014.96 1014.90 1014.70 1014.47 1014.32 1014.36 1014.32 1014.03 1013.73 1013.33 1013.25 1013.48 1013.79 1013.85 1013.79 1014.00 1013.79 1013.54 1013.79 1014.06 1014.36 1014.56 1014.96 1015.22 1015.67 1016.15 1016.56 1016.98 1017.35 1017.61 1018.00 1018.39 1018.92 1019.49 1019.84 1020.29 1020.53 1020.83 1021.03 1021.44 1021.67 1021.95 1022.38 1022.62 1022.78
1016.14 1015.90 1015.71 1015.32 1015.08 1015.17 1014.89 1014.64 1014.62 1014.67 1014.05 1013.50 1013.40 1013.19 1013.03 1013.12 1013.43 1013.38 1013.34 1013.24 1013.16 1013.18 1013.09 1013.15 1013.55 1013.97 1014.29 1014.61 1015.10 1015.52 1016.02 1016.53 1016.96 1017.18 1017.54 1017.83 1018.40 1019.26 1019.71 1020.03 1020.35 1020.70 1021.02 1021.50 1021.90 1022.23 1022.44 1022.60 1022.52
1015.89 1015.79 1015.63 1015.35 1015.26 1014.94 1014.89 1014.94 1014.95 1014.21 1013.59 1013.28 1013.02 1013.00 1012.97 1013.03 1012.93 1012.62 1012.47 1012.28 1012.14 1012.43 1012.45 1012.51 1012.93 1013.38 1013.69 1014.33 1014.66 1015.09 1015.46 1015.91 1016.26 1016.68 1016.94 1017.43 1017.92 1018.62 1019.34 1019.72 1020.09 1020.52 1020.84 1021.24 1021.85 1022.21 1022.46 1022.59 1022.64
1016.11 1015.98 1015.82 1015.41 1015.04 1014.78 1015.01 1014.72 1014.93 1013.58 1013.21 1013.43 1013.01 1012.94 1013.04 1013.24 1013.05 1013.13 1012.87 1012.40 1012.20 1011.66 1011.48 1011.55 1012.11 1012.46 1012.89 1013.81 1014.38 1014.85 1015.18 1015.55 1016.05 1016.47 1016.64 1017.23 1017.71 1018.34 1019.12 1019.53 1019.81 1020.18 1020.53 1021.02 1021.52 1021.91 1022.30 1022.55 1022.71
1016.14 1016.28 1016.05 1014.92 1014.50 1014.84 1014.46 1015.03 1014.56 1013.43 1013.57 1013.67 1013.24 1013.10 1013.26 1013.74 1014.29 1014.82 1014.60 1014.01 1013.59 1012.93 1011.98 1011.77 1011.74 1012.31 1012.74 1013.01 1013.64 1014.34 1014.93 1015.36 1015.77 1016.17 1016.51 1017.00 1017.50 1018.01 1018.77 1019.19 1019.61 1019.81 1020.15 1020.50 1021.08 1021.65 1022.11 1022.46 1022.52
1016.61 1016.74 1016.49 1014.98 1014.81 1014.56 1014.62 1014.79 1014.08 1013.33 1013.51 1013.41 1013.06 1013.33 1013.83 1015.17 1015.72 1015.85 1015.77 1015.24 1014.51 1013.46 1012.67 1012.19 1012.10 1012.30 1012.93 1013.32 1013.61 1014.01 1014.55 1015.15 1015.65 1015.95 1016.23 1016.61 1017.01 1017.51 1018.45 1019.08 1019.43 1019.65 1020.04 1020.49 1021.00 1021.32 1021.79 1022.08 1022.34
1017.33 1017.18 1016.60 1015.70 1014.74 1014.95 1015.12 1015.04 1014.25 1013.51 1013.43 1013.42 1013.41 1014.28 1015.42 1016.22 1016.62 1016.88 1016.77 1016.30 1015.54 1015.02 1014.23 1013.19 1012.86 1012.82 1012.88 1013.36 1013.72 1014.05 1014.50 1014.97 1015.38 1015.83 1016.22 1016.53 1016.89 1017.25 1017.97 1018.68 1019.14 1019.60 1020.18 1020.58 1020.89 1021.43 1021.65 1022.24 1022.51
1017.61 1017.49 1016.92 1016.38 1015.56 1015.03 1015.22 1014.80 1014.71 1014.14 1013.96 1013.18 1014.32 1015.37 1016.67 1017.44 1017.97 1018.05 1017.84 1017.32 1016.40 1015.84 1015.50 1015.01 1014.00 1013.95 1014.05 1014.17 1014.48 1014.71 1014.92 1015.19 1015.42 1015.70 1015.95 1016.32 1016.78 1017.29 1017.86 1018.46 1018.92 1019.46 1020.25 1020.89 1021.18 1021.41 1021.90 1022.07 1022.42
1017.45 1017.44 1017.25 1016.60 1015.92 1015.71 1015.38 1015.35 1014.55 1014.09 1013.77 1014.15 1015.13 1016.22 1017.29 1018.29 1018.87 1018.57 1018.34 1017.98 1017.38 1016.91 1016.34 1016.27 1015.93 1015.55 1015.16 1015.15 1015.43 1015.65 1015.76 1015.80 1015.84 1015.77 1015.89 1016.27 1016.60 1017.12 1017.81 1018.26 1018.70 1019.31 1019.92 1020.43 1021.06 1021.63 1022.17 1022.53 1022.72
1017.25 1017.31 1017.10 1016.73 1015.98 1016.01 1015.76 1015.74 1014.58 1013.68 1014.91 1015.59 1016.34 1017.26 1018.10 1018.72 1019.00 1019.30 1019.10 1018.62 1018.61 1018.55 1018.00 1017.48 1017.24 1017.13 1016.81 1016.39 1016.30 1016.29 1016.34 1016.38 1016.39 1016.28 1016.23 1016.35 1016.72 1016.99 1017.58 1018.13 1018.62 1018.97 1019.65 1020.22 1020.73 1021.20 1021.96 1022.22 1022.39
1017.02 1017.11 1017.00 1017.08 1016.66 1016.41 1016.45 1016.02 1015.12 1016.10 1016.18 1016.82 1017.84 1018.57 1019.12 1019.33 1019.48 1019.73 1019.85 1020.00 1019.88 1019.61 1019.37 1019.03 1018.59 1018.12 1018.02 1017.74 1017.22 1016.97 1016.90 1017.15 1017.51 1017.38 1017.17 1017.05 1016.97 1017.17 1017.38 1017.88 1018.43 1018.87 1019.28 1019.75 1020.03 1020.46 1021.20 1022.03 1022.20
1017.31 1016.65 1016.92 1017.17 1017.59 1017.71 1017.34 1017.34 1016.22 1016.56 1017.22 1017.83 1018.85 1019.51 1020.00 1020.43 1020.54 1020.37 1020.58 1020.85 1020.76 1020.81 1020.41 1020.12 1019.76 1019.46 1019.18 1018.88 1018.67 1018.88 1018.93 1019.17 1019.46 1019.01 1018.56 1018.15 1017.82 1017.73 1017.86 1017.99 1018.32 1018.67 1019.02 1019.40 1019.64 1020.09 1020.45 1021.11 1021.82
1016.76 1016.96 1017.46 1017.73 1018.41 1018.71 1018.25 1018.49 1016.48 1016.46 1017.75 1018.95 1019.78 1020.23 1020.91 1021.22 1021.27 1021.40 1021.66 1021.72 1021.57 1021.66 1021.39 1020.99 1020.74 1020.45 1020.31 1020.21 1020.12 1019.94 1019.98 1020.17 1019.96 1019.83 1019.80 1019.36 1018.84 1018.46 1018.46 1018.55 1018.57 1018.74 1018.97 1019.39 1019.57 1019.97 1020.34 1020.45 1020.81
1016.85 1017.42 1017.85 1018.49 1019.32 1019.47 1018.38 1018.41 1016.97 1016.73 1017.09 1019.13 1020.22 1020.90 1021.46 1021.97 1021.95 1021.89 1022.17 1022.25 1022.36 1022.29 1022.36 1022.17 1021.77 1021.68 1021.47 1021.20 1021.05 1021.09 1021.18 1020.94 1020.74 1020.81 1020.90 1020.81 1020.37 1019.90 1019.50 1019.09 1018.88 1018.80 1018.86 1019.13 1019.32 1019.62 1019.91 1020.18 1020.26
1017.30 1018.45 1019.11 1019.88 1020.53 1019.79 1018.98 1018.73 1017.26 1016.76 1017.23 1018.54 1020.22 1021.38 1021.84 1022.17 1022.34 1022.59 1022.74 1022.85 1022.94 1022.94 1022.87 1022.82 1022.71 1022.62 1022.56 1022.33 1022.04 1021.99 1022.11 1022.07 1022.05 1021.95 1021.92 1021.78 1021.45 1021.11 1020.64 1020.42 1019.91 1019.35 1018.81 1018.69 1018.86 1019.26 1019.46 1019.59 1019.91
1017.80 1018.50 1019.73 1020.71 1021.33 1020.48 1019.60 1018.82 1017.94 1018.34 1018.47 1019.65 1020.85 1021.57 1022.11 1022.59 1022.80 1023.05 1023.21 1023.38 1023.39 1023.41 1023.39 1023.45 1023.48 1023.46 1023.25 1023.08 1022.96 1022.75 1022.58 1022.68 1022.63 1022.99 1022.93 1022.65 1022.42 1022.00 1021.46 1020.79 1020.16 1019.87 1019.28 1018.90 1018.72 1018.90 1018.95 1019.06 1019.26
1018.06 1018.73 1019.40 1020.76 1021.92 1021.79 1019.90 1018.84 1019.18 1019.23 1019.64 1020.47 1021.17 1021.70 1022.22 1022.55 1022.86 1023.08 1023.20 1023.48 1023.68 1023.82 1023.95 1024.01 1023.88 1023.74 1023.59 1023.49 1023.47 1023.40 1023.52 1023.55 1023.31 1022.99 1023.00 1023.39 1023.05 1022.63 1022.03 1021.34 1020.63 1020.24 1019.74 1019.17 1018.95 1018.98 1018.73 1018.78 1018.89
1018.01 1018.63 1019.75 1021.13 1022.20 1021.99 1020.18 1019.29 1018.84 1019.52 1020.06 1020.75 1021.27 1021.79 1022.27 1022.62 1023.10 1023.43 1023.65 1023.77 1024.05 1024.14 1024.30 1024.15 1024.18 1024.33 1024.17 1024.04 1023.71 1023.88 1023.93 1023.87 1023.75 1023.74 1023.74 1023.80 1023.18 1022.62 1022.34 1021.79 1021.50 1020.84 1020.13 1019.63 1019.13 1018.80 1018.61 1018.66 1018.58
1018.93 1019.09 1019.78 1020.80 1021.69 1021.41 1020.85 1019.33 1018.34 1018.88 1019.81 1020.65 1021.61 1021.94 1022.23 1022.48 1022.79 1023.33 1023.80 1024.05 1024.28 1024.64 1024.70 1024.57 1024.61 1024.74 1024.65 1024.60 1024.64 1024.56 1024.03 1024.08 1024.04 1024.22 1024.19 1023.52 1022.95 1022.73 1022.31 1022.06 1022.10 1021.72 1021.25 1020.45 1019.25 1018.69 1018.58 1018.66 1018.48
1018.95 1019.31 1020.03 1021.06 1021.42 1021.33 1020.72 1019.70 1018.75 1019.04 1019.73 1020.62 1021.34 1021.71 1022.14 1022.43 1022.90 1023.56 1023.99 1024.14 1024.46 1024.71 1024.70 1024.60 1024.69 1024.72 1024.84 1025.02 1024.96 1024.91 1024.66 1024.72 1024.83 1024.45 1024.06 1023.87 1023.32 1022.52 1022.26 1021.95 1021.56 1021.61 1021.69 1021.50 1020.68 1019.18 1018.42 1018.37 1018.12
Wind_Speed
7 8 0 5 6 6 4 2 3 5 3 1 0 2 3 2 3 4 3 8 10 13 13 14 15 16 15 15 15 14 15 15 14 12 13 12 9 7 8 9 10 11 11 7 8 9 9 9 9
4 5 5 2 6 4 5 3 4 4 4 1 2 1 1 2 3 4 4 7 11 12 12 13 15 16 15 15 16 15 15 16 13 14 14 13 12 7 9 11 11 13 10 6 7 8 9 8 8
4 0 4 4 3 3 2 2 2 3 3 2 3 1 1 2 3 8 3 8 10 10 12 10 13 17 17 15 14 13 11 15 14 13 13 12 10 9 7 9 9 9 7 5 6 7 7 7 7
3 5 5 5 2 3 3 1 3 3 2 3 2 4 4 3 3 6 7 7 9 9 11 13 14 15 16 16 16 13 11 12 15 14 13 12 11 8 6 7 6 6 6 5 5 7 7 7 6
4 3 3 2 5 3 4 4 2 0 2 2 3 4 5 4 6 8 8 7 8 8 9 12 16 15 15 15 15 15 14 13 13 14 14 16 10 8 7 7 8 7 7 6 7 6 6 6 6
4 4 4 1 5 5 2 4 2 2 3 2 2 1 1 2 4 5 8 7 7 8 8 11 16 15 14 15 15 14 13 12 12 15 16 13 12 11 9 8 8 9 8 7 7 6 6 6 6
2 4 3 2 4 6 2 0 3 1 4 0 2 0 1 2 3 6 7 6 7 8 8 8 11 13 15 15 14 14 13 12 11 11 12 12 13 11 10 8 9 9 9 9 8 8 7 6 5
4 4 2 4 2 5 4 2 4 2 5 1 1 2 3 5 8 7 5 6 6 6 8 9 8 8 7 8 14 13 12 11 10 10 10 9 10 11 9 7 10 10 10 10 9 8 7 6 5
3 5 2 4 5 6 6 5 6 3 2 2 3 5 5 5 7 5 3 2 3 4 7 7 9 8 8 6 7 10 12 11 11 12 12 8 5 7 9 7 8 9 9 10 10 9 8 6 4
5 4 6 2 1 3 3 1 3 5 7 6 6 7 4 5 2 6 6 7 7 7 6 7 8 9 9 8 6 6 5 5 6 6 7 5 6 5 7 7 10 10 10 11 11 10 8 5 1
4 5 3 7 5 3 3 7 4 4 6 8 9 7 5 7 8 9 9 9 11 10 6 9 9 8 10 8 6 4 4 4 4 8 9 7 6 4 4 3 4 4 7 3 5 5 3 3 2
3 8 7 5 4 5 4 1 8 5 14 10 11 9 6 11 7 11 10 9 7 9 13 11 11 10 10 7 7 7 7 6 6 8 9 6 5 5 4 4 5 5 4 6 5 3 4 3 4
4 5 3 7 8 8 5 5 7 10 14 12 14 11 12 10 9 8 9 9 9 9 10 12 11 11 10 8 6 7 8 8 8 6 7 6 6 6 5 5 5 5 4 5 5 4 4 4 3
4 5 6 6 10 8 6 7 5 10 7 11 10 10 9 8 7 8 9 9 7 8 11 10 14 13 10 9 7 5 5 6 5 4 5 6 6 6 6 6 6 6 5 5 5 5 5 4 3
3 5 7 11 8 7 5 3 9 13 8 8 9 8 8 9 14 13 13 12 12 11 8 7 12 10 11 10 8 5 5 5 6 6 6 8 6 7 7 6 5 6 6 7 6 5 4 4 3
4 1 3 7 5 3 2 7 10 11 5 11 14 9 8 12 13 13 12 12 14 14 15 7 2 8 7 6 5 5 5 4 4 5 6 7 7 10 7 5 5 5 5 5 5 5 4 5 5
3 4 5 8 2 3 4 6 9 9 9 12 10 8 11 11 16 15 14 13 15 14 16 15 9 3 7 6 5 5 6 4 4 4 4 7 8 9 7 5 5 6 4 4 5 2 4 3 3
5 4 4 6 6 6 5 10 9 11 10 12 5 8 12 14 14 14 15 15 15 15 16 16 13 11 6 4 4 3 2 2 2 3 4 7 6 7 6 5 6 5 4 3 2 3 1 2 4
3 4 5 5 9 6 10 8 13 12 11 13 8 13 12 13 10 13 14 16 17 18 17 17 18 16 9 5 4 3 1 1 2 2 5 6 6 7 6 5 6 5 6 6 5 4 5 1 3
1 4 8 6 4 2 6 13 15 16 5 7 13 11 10 9 11 14 15 16 17 15 16 17 16 16 12 6 4 3 3 2 2 2 2 3 5 6 6 6 5 6 5 6 7 5 3 3 6
5 5 5 8 3 5 5 7 7 5 11 13 11 11 10 10 12 13 15 14 13 15 16 16 16 15 14 13 8 5 4 4 5 5 3 3 3 5 6 6 5 6 6 7 7 7 8 5 5
4 3 6 4 3 3 4 6 7 7 7 6 8 7 9 10 12 12 12 13 13 12 12 14 15 16 14 16 11 12 7 6 4 4 4 5 5 2 1 3 4 5 4 6 6 6 5 5 6
8 2 1 2 3 3 5 1 9 8 3 4 6 9 9 9 10 11 10 10 10 10 11 11 13 15 15 15 13 9 11 5 4 7 9 9 7 6 3 1 2 3 4 4 6 5 6 4 5
3 2 5 3 3 2 5 7 6 5 8 7 7 9 9 7 7 8 7 6 7 7 8 9 12 13 13 13 14 14 13 10 9 9 9 8 6 6 8 7 3 3 3 5 5 7 7 8 5
4 4 4 4 2 6 1 0 8 5 7 14 14 9 7 6 7 7 7 6 6 8 8 7 9 11 10 11 12 12 11 11 11 10 8 8 7 5 9 9 7 5 5 5 5 6 6 7 8
5 6 5 5 3 5 7 5 4 8 15 15 11 8 7 6 6 6 7 6 7 7 8 7 7 8 8 9 9 9 10 6 6 7 6 6 6 6 8 8 7 8 7 6 4 3 5 5 7
3 3 3 4 1 2 5 4 4 6 11 11 9 8 7 7 5 5 6 6 7 7 7 8 8 8 9 8 6 8 7 8 7 6 6 5 6 8 9 9 8 7 7 7 6 4 5 5 6
3 5 3 2 2 5 5 5 5 6 11 9 8 7 6 5 6 5 5 6 6 6 6 7 7 8 8 9 8 6 6 6 5 4 4 5 5 8 10 11 10 10 8 7 6 5 5 5 5
2 2 2 3 5 5 2 7 0 6 11 10 6 7 8 6 6 6 5 5 5 4 4 5 5 5 6 6 7 7 7 9 8 8 7 6 5 5 5 6 9 11 10 9 7 6 7 7 7
5 6 6 4 5 3 1 9 4 7 9 9 8 8 8 7 7 6 6 6 5 4 4 4 4 4 3 1 1 3 3 4 6 6 6 8 10 9 8 7 5 5 6 10 9 7 6 7 8
Wind_Direction
311 292 212 34 51 64 310 355 91 37 33 49 32 92 215 230 209 210 245 185 133 153 163 162 167 164 159 148 148 157 161 159 157 157 151 138 122 121 167 134 107 97 95 93 86 83 76 70 66
311 312 42 72 83 70 295 135 113 156 168 71 315 352 356 307 110 124 124 195 137 150 161 165 165 166 163 159 162 173 177 158 165 172 151 140 130 119 109 120 113 110 101 102 101 98 90 81 70
300 51 72 95 115 144 178 47 93 14 128 113 4 326 236 149 123 155 211 160 126 149 158 165 168 167 167 170 168 169 178 158 164 159 149 145 149 142 135 110 101 106 112 118 112 105 97 85 73
11 10 17 86 232 266 122 63 101 26 59 116 133 314 312 341 125 162 152 149 134 152 159 158 170 174 173 172 168 174 180 172 169 166 166 160 149 149 161 187 159 143 146 142 131 114 107 93 84
31 64 46 360 286 276 73 101 72 359 296 198 143 293 294 33 118 132 146 155 156 153 161 162 170 176 176 177 174 177 184 185 174 169 174 169 164 166 170 184 188 180 173 158 138 126 113 103 96
10 93 46 329 300 300 87 112 76 350 316 220 134 72 336 133 126 188 154 171 169 159 157 169 174 175 180 179 181 184 189 187 186 186 187 166 168 170 179 188 193 181 173 163 143 135 128 115 105
94 75 221 264 284 335 134 166 81 31 350 120 229 112 316 235 181 171 169 177 174 167 150 167 179 185 179 179 182 184 188 193 201 203 194 162 162 169 191 195 188 176 175 170 158 147 139 131 105
99 94 278 273 254 272 185 125 141 94 274 265 43 258 241 215 171 153 162 183 199 185 166 171 176 180 187 190 183 185 187 189 199 180 159 155 156 156 174 197 193 180 183 169 164 158 147 129 120
57 59 258 258 33 330 350 34 346 337 271 329 227 211 242 144 146 136 161 207 230 218 199 168 175 184 187 191 192 189 186 190 180 168 162 150 150 151 155 168 185 186 185 174 168 162 150 136 133
101 121 235 174 129 323 299 84 313 357 315 292 307 296 153 148 176 177 198 217 214 221 213 201 174 181 181 196 190 191 190 186 172 165 159 150 154 155 151 172 183 186 167 171 173 165 150 134 147
189 198 216 299 330 3 294 314 325 315 292 249 262 268 304 195 214 214 220 211 211 209 195 192 191 177 180 191 172 180 180 170 171 168 170 164 153 169 159 167 175 164 150 154 163 147 142 181 208
202 232 239 263 307 316 266 276 297 205 252 248 258 259 275 290 247 228 234 227 214 204 212 199 191 183 184 184 176 178 180 179 180 185 182 171 159 168 174 169 168 160 158 152 151 155 181 220 159
224 248 283 311 302 273 289 253 249 270 263 273 275 279 271 279 262 267 234 237 226 216 207 203 186 190 192 185 179 179 188 187 192 190 171 180 177 175 163 171 163 163 157 157 165 170 182 182 160
326 325 290 279 268 270 252 279 154 274 293 307 304 284 289 294 299 327 318 273 258 234 206 192 191 191 178 186 179 176 172 173 174 180 176 180 174 169 175 170 173 171 172 165 166 173 175 178 163
328 332 316 266 261 235 150 309 230 255 318 299 304 305 321 358 53 30 19 27 9 357 289 206 188 186 182 175 170 161 172 164 180 186 182 179 170 171 176 171 178 183 180 163 157 166 156 159 171
313 64 316 287 18 273 110 251 268 271 287 308 295 318 337 63 45 28 13 13 6 9 12 341 166 167 166 166 158 155 169 168 170 180 186 177 173 166 171 174 184 177 167 162 164 162 167 178 176
311 238 224 311 41 159 186 247 258 281 283 277 291 323 61 52 38 27 22 17 19 10 6 13 3 191 169 153 150 164 165 169 177 166 172 173 170 166 160 170 179 165 164 168 167 166 146 169 183
220 246 291 277 304 342 285 255 263 279 290 275 273 39 67 54 42 30 23 20 26 26 22 13 25 22 40 68 66 57 80 129 148 169 167 166 166 158 156 167 172 156 152 161 174 153 190 155 169
274 238 256 262 276 306 280 302 289 254 262 295 35 101 82 65 49 42 33 26 25 26 30 25 22 17 25 26 48 52 97 63 68 162 160 165 169 165 167 171 164 158 170 173 165 139 176 231 140
306 314 283 286 269 345 295 297 276 300 33 64 96 88 85 81 56 42 33 32 29 25 25 29 29 27 22 16 7 32 39 21 16 11 80 151 174 177 166 173 182 167 148 166 176 161 150 183 185
262 223 246 237 320 299 314 293 285 42 81 79 72 87 77 77 70 52 41 35 32 29 26 28 27 30 28 20 23 14 24 23 14 360 360 14 157 182 176 176 173 174 169 190 189 174 171 191 224
267 259 239 262 60 225 67 284 295 129 100 88 86 76 78 67 62 61 52 43 39 32 33 34 34 33 29 26 34 41 48 34 351 348 352 357 20 75 206 220 188 188 185 184 194 193 180 145 197
222 59 294 221 198 350 280 125 260 129 139 103 87 78 65 64 69 65 54 48 38 33 32 34 36 35 32 36 36 39 36 18 6 15 11 1 351 5 16 334 242 218 191 218 198 191 202 189 181
114 30 299 73 119 303 238 178 281 182 182 136 105 89 83 67 68 75 71 56 47 33 38 32 40 36 28 33 33 34 33 28 29 18 14 0 352 355 346 319 271 259 231 212 210 214 210 218 223
78 69 323 2 16 226 300 183 247 333 111 137 122 105 96 92 74 68 62 54 54 45 40 49 44 43 29 33 40 36 32 31 28 20 14 6 0 353 355 353 333 306 272 235 210 215 217 214 223
183 166 162 234 224 267 328 257 301 73 89 99 101 112 104 88 86 80 69 57 51 43 44 47 47 46 37 37 33 34 38 35 38 21 10 8 359 344 343 344 349 344 323 297 255 224 226 221 228
200 183 173 101 346 47 235 271 83 100 101 110 121 123 126 120 118 111 86 65 59 54 45 42 31 30 32 37 33 35 27 23 24 25 21 355 347 345 346 344 347 340 341 339 313 274 254 239 237
148 171 67 19 209 241 276 262 219 184 150 149 152 140 133 118 92 78 80 81 64 68 54 51 42 31 17 13 22 24 24 21 19 13 0 343 338 353 348 349 344 339 336 333 336 311 287 265 259
63 219 137 144 177 199 240 262 120 123 164 163 155 162 169 159 144 129 110 102 105 97 99 91 88 68 39 20 6 359 5 3 2 356 343 344 330 328 336 337 337 337 332 325 329 318 296 279 262
185 226 185 209 242 253 238 259 134 131 140 146 185 189 183 166 149 142 128 126 128 140 131 132 137 110 113 78 38 341 333 339 330 323 329 333 332 335 331 327 308 287 303 314 310 297 276 264 266